Home > Time Zones > World Clock > Weather > U.S.A. > Waco > Past weeks

Flag for U.S.A. Weather past 2 weeks in Waco, Texas, U.S.A.

Now
60 °F

Passing clouds.


Feels Like: 60 °F
Forecast: 38 / 61 °F
Wind: 7 mph from South

Location: Waco Regional Airport

Current Time: Dec 26, 2014 at 8:34:40 PM

Latest Report: Dec 26, 2014 at 7:51 PM


Visibility: 10 mi

Pressure: 29.92 "Hg

Humidity: 96%

Dew point: 59 °F

Location of WacoLocation

Historic Weather in Waco — Graph

°F

Waco temperature yesterday

Maximum temperature yesterday: 62 °F (at 2:51 PM)
Minimum temperature yesterday: 32 °F (at 12:51 AM)
Average temperature yesterday: 49 °F

Past Weeks' High & Low Weather Summary

 TemperatureHumidityPressure
High72 °F (Dec 22, 12:51 PM)97% (Dec 13, 4:51 AM)30.38 "Hg (Dec 13, 4:51 AM)
Low32 °F (Dec 25, 12:51 AM)28% (Dec 15, 3:51 PM)29.56 "Hg (Dec 22, 2:51 PM)
Average53 °F77%30.04 "Hg
* Reported Dec 11 6:51 PM — Dec 26 6:56 PM, Waco, Weather by CustomWeather, © 2014

Note: Actual official high and low records may vary slightly from our data, if they occured in-between our weather recording intervals... More about our weather records

Advertising

Waco weather history for previous 24 hours

 ConditionsComfort  
Time TempWeatherWind HumidityBarometerVisibility
6:56 PM
Dec 26
60 °FPassing clouds.6 mph96%29.92 "Hg10 mi
5:51 PM62 °FMostly cloudy.8 mph93%29.88 "Hg10 mi
4:51 PM67 °FMore clouds than sun.10 mph81%29.87 "Hg10 mi
3:51 PM68 °FPartly sunny.15 mph76%29.86 "Hg10 mi
2:51 PM67 °FPartly sunny.12 mph79%29.86 "Hg10 mi
1:51 PM65 °FMostly cloudy.13 mph85%29.87 "Hg10 mi
12:51 PM63 °FOvercast.10 mph87%29.90 "Hg10 mi
11:58 AM62 °FOvercast.13 mph86%29.94 "Hg10 mi
10:51 AM61 °FOvercast.13 mph87%29.96 "Hg10 mi
9:51 AM59 °FOvercast.10 mph87%29.94 "Hg10 mi
8:51 AM56 °FMostly cloudy.9 mph90%29.94 "Hg10 mi
7:51 AM53 °FScattered clouds.10 mph89%29.93 "Hg10 mi
6:51 AM51 °FPassing clouds.7 mph92%29.93 "Hg10 mi
5:51 AM50 °FPassing clouds.6 mph89%29.91 "Hg10 mi
4:51 AM53 °FMostly cloudy.8 mph83%29.91 "Hg10 mi
3:51 AM52 °FOvercast.8 mph83%29.93 "Hg10 mi
2:51 AM52 °FOvercast.10 mph83%29.93 "Hg10 mi
1:51 AM52 °FOvercast.9 mph80%29.96 "Hg10 mi
12:51 AM52 °FPassing clouds.10 mph80%29.96 "Hg10 mi
11:51 PM
Dec 25
52 °FPassing clouds.14 mph77%29.96 "Hg10 mi
10:51 PM53 °FPassing clouds.18 mph74%29.95 "Hg10 mi
9:51 PM52 °FClear.17 mph72%29.95 "Hg10 mi
8:51 PM53 °FClear.15 mph66%29.95 "Hg10 mi
Weather by CustomWeather, © 2014

See weather overviewHow to use our weather pages